Reflectivity
-20 -20 -20 -20 -20 -20 -11 -20 -20 -20 -20 -20 -20 -20 -20 -20 -14 -7 -11 -7 10 15 -20 -20 -7 -20 -20 -17 4 4 -20 10 -7
-20 -20 -20 -20 -20 -20 -20 -20 -20 -20 -20 -20 -20 -20 -20 -20 0 -20 2 5 11 -10 -20 -20 13 10 14 16 16 17 18 -1 -0
-20 -20 -20 -20 -20 -20 -20 -20 -20 -20 -20 -20 -20 -20 -20 -20 -9 -20 -20 7 -20 -20 -20 -20 16 -20 -1 14 15 16 10 15 4
-20 -20 -20 -20 -20 -20 -20 -20 -20 -20 -20 -20 -20 -20 -20 -20 -20 -20 -20 8 -20 -20 -20 14 17 -20 -20 13 -11 1 15 13 13
-20 23 -20 -20 -20 -20 -20 -20 -20 -20 -20 -20 -20 -20 -20 -18 14 4 -20 -1 -20 -20 -20 -11 11 -20 -20 -15 18 16 14 17 13
-20 -16 9 -19 -20 -20 -20 -20 -20 -20 -20 -20 -20 -20 -20 14 -18 -5 15 3 -20 -20 2 6 5 -20 -20 -4 10 16 15 15 17
-11 6 10 11 -3 -20 -20 -20 -20 -20 -20 -20 -20 -20 -20 -20 7 1 16 -19 -20 -20 -3 11 10 -20 -20 2 7 15 15 15 18
-18 -19 11 -13 -7 -20 -20 -20 -20 -20 -20 -20 -20 -20 -20 -20 -8 12 -2 18 -20 -20 4 14 -5 5 -20 -20 5 14 16 14 17
-18 24 7 -14 -20 -20 -20 -20 -20 -20 -20 -20 -20 -20 -20 -20 -20 -20 -5 -20 -20 -20 2 10 11 -18 -20 -20 -17 -18 16 8 16
-20 -20 -20 -20 -20 -20 -20 -20 -20 -20 -20 -20 -20 -20 -20 -20 -20 -20 12 -20 -20 -20 4 12 8 1 -19 -20 -20 4 13 12 -3
-20 -20 -20 -20 -20 -20 -20 -20 -20 -20 -20 -20 -20 -20 -20 -20 -20 -10 -20 -20 -20 -20 12 19 10 16 -3 -20 -20 7 -17 -13 16
-20 -20 -20 -20 -20 -20 -20 -20 -20 -20 -20 -20 -20 -20 -20 -20 5 8 10 -20 -20 -20 15 12 23 8 -20 -20 -20 -9 2 13 14
-20 -12 -20 -20 -20 -20 -20 -20 -20 -20 -20 -20 -20 -20 -20 -20 3 12 8 12 -20 -20 0 7 21 -18 -20 -20 -20 9 -20 16 18
-20 -13 -20 -20 -20 -20 -20 -20 -20 -20 -20 -20 -20 -20 -20 -20 7 12 14 11 -20 -20 -20 2 22 11 -11 -20 -20 -20 -20 -2 16
13 5 -20 -16 1 -20 -20 -20 -20 -20 -20 -20 -20 -20 -20 -20 -20 9 10 9 -20 -20 -20 4 -0 -20 -20 -20 -20 -20 -20 -16 -20
32 23 12 -14 2 -20 -20 -20 -20 -20 -20 -20 -20 -20 -20 12 -20 14 -14 14 -20 -20 -20 -20 6 -20 -13 -20 -20 -20 -20 -20 -20
28 35 26 5 -19 -3 -20 -20 -20 -20 -20 -20 -20 11 -2 -10 -11 -11 2 10 18 -20 -20 -20 19 -18 -20 -20 -14 -20 -20 -20 -20
37 26 27 34 -1 -14 -11 -20 -20 -20 -20 -20 -20 -10 3 -7 -20 -8 -6 -4 16 -20 -20 -19 3 -5 -20 -20 -20 -20 -20 -20 -20
15 32 21 4 32 12 -10 6 -18 -20 -20 -20 -20 -20 -20 -16 -20 -20 3 5 15 -3 -20 -20 -15 -2 0 11 -20 -20 -20 -20 -20
17 2 27 23 -17 21 19 -7 13 1 -20 -20 -20 -20 -20 -20 -20 -20 -20 3 13 -5 2 22 7 -19 -1 5 -20 -20 -20 -20 -20
Wind_Speed
15 15 14 13 13 14 14 14 13 12 9 6 8 11 12 9 6 5 9 7 14 13 13 13 15 14 16 14 14 14 13 18 20
15 15 13 12 12 13 13 14 13 11 9 8 9 14 12 6 5 5 6 7 13 12 13 13 14 18 17 17 17 17 17 20 20
15 15 13 13 12 12 12 12 12 11 10 10 13 13 12 6 6 5 5 11 13 12 12 14 15 19 17 16 17 17 17 18 20
15 14 14 13 13 11 11 11 11 11 10 10 11 10 9 6 5 6 3 11 13 14 13 14 16 19 17 15 16 14 15 16 16
15 14 15 14 12 10 10 10 9 9 9 10 11 11 7 4 6 4 4 13 13 13 12 14 18 19 17 13 13 13 13 13 14
10 9 11 14 16 13 10 10 9 8 7 8 9 8 3 4 4 3 10 13 13 11 12 14 18 19 18 12 13 13 11 11 13
8 8 12 11 11 14 11 9 9 7 3 3 6 3 4 4 3 3 10 13 12 12 12 15 16 19 20 12 13 12 13 12 14
3 4 5 4 6 3 6 5 2 4 4 3 3 4 4 3 2 6 11 12 13 13 14 14 18 18 20 14 12 11 12 13 13
6 5 4 4 3 4 4 3 3 3 3 4 4 4 4 3 3 4 12 11 13 13 14 15 18 18 19 16 13 11 10 13 13
5 4 4 4 4 4 4 5 4 3 3 4 5 5 5 5 3 2 10 11 12 13 16 16 19 18 20 15 14 11 11 12 13
6 5 5 4 5 4 4 5 5 4 3 4 5 6 5 6 5 4 5 11 12 13 16 18 19 18 18 16 14 12 11 12 12
9 7 7 7 5 6 5 3 3 3 2 4 4 4 6 6 6 5 4 6 10 11 15 18 17 19 18 16 15 13 12 11 10
8 7 8 7 6 5 4 5 3 4 3 3 4 4 4 6 6 5 5 4 4 8 12 15 18 18 19 19 16 14 13 13 12
9 7 7 7 7 6 6 3 4 3 2 3 3 3 4 5 4 5 6 6 5 4 6 12 14 14 15 17 18 16 14 14 13
10 8 9 9 7 6 5 5 3 3 4 3 3 3 2 4 4 5 4 5 7 6 6 6 7 11 14 16 17 18 16 15 14
10 8 9 9 10 11 10 4 7 3 4 4 0 2 1 4 3 4 5 5 5 6 5 5 4 6 12 14 15 18 18 17 15
13 12 10 11 9 10 11 8 4 3 9 5 4 4 2 3 3 4 5 7 6 5 5 7 9 5 4 6 13 15 18 17 17
17 16 12 12 11 11 13 12 12 7 6 6 5 4 6 3 2 4 6 8 6 5 6 7 8 7 6 7 9 12 15 18 18
17 16 17 16 11 12 13 12 13 11 9 2 3 3 5 4 3 3 3 7 9 8 6 7 8 8 7 8 10 13 14 17 19
14 16 16 16 13 15 15 15 14 12 12 10 3 2 2 2 3 4 5 2 7 6 7 7 7 9 8 8 8 14 16 20 20
Wind_Direction
135 128 121 119 118 117 115 112 107 96 90 110 137 138 116 95 94 99 92 91 100 100 101 108 103 104 109 103 103 102 97 97 94
138 133 130 129 126 123 123 120 114 100 91 108 133 131 117 113 108 108 99 107 104 105 112 113 107 95 94 105 105 105 99 97 96
148 138 136 136 135 133 129 126 122 107 93 106 116 117 121 114 108 111 100 114 104 108 118 122 117 102 89 88 87 89 85 93 94
156 146 146 148 144 140 136 132 129 116 104 108 115 119 127 129 132 121 123 124 114 122 131 118 118 108 101 95 94 89 94 91 91
159 160 158 156 149 146 144 143 138 126 113 113 130 136 134 135 124 117 125 131 125 133 130 119 118 112 106 99 96 88 87 103 96
165 164 165 165 155 153 155 152 142 131 116 107 123 118 118 138 126 119 141 137 134 136 134 137 124 118 102 104 105 106 109 107 103
174 170 167 166 168 154 160 161 153 128 126 110 104 123 137 119 135 135 149 142 141 147 145 139 129 118 115 120 124 121 112 110 107
149 161 168 163 154 175 145 148 136 151 151 151 137 142 148 144 147 153 156 154 148 157 151 145 138 128 124 127 116 123 125 117 115
163 178 168 155 164 170 153 155 166 171 173 173 158 158 161 164 168 183 157 157 158 166 166 154 146 139 129 134 131 136 126 127 116
167 169 162 165 150 169 176 163 174 186 190 182 176 175 181 176 179 171 164 154 160 174 170 168 153 146 135 138 136 146 133 128 140
176 171 176 171 175 177 181 173 177 196 187 194 205 204 185 180 178 173 177 163 163 180 174 171 159 150 138 142 145 154 152 154 137
186 183 185 186 181 180 182 163 172 177 173 239 215 203 193 180 183 185 168 167 172 184 188 177 168 156 145 148 156 162 161 150 147
194 192 194 185 179 173 195 162 192 214 190 207 226 196 173 181 182 169 167 161 169 191 203 178 179 167 159 157 165 169 164 166 162
192 198 193 178 183 183 184 162 154 182 207 210 215 203 172 175 168 175 178 171 173 182 201 172 180 172 171 165 167 169 172 173 173
205 201 192 178 183 187 183 164 155 169 188 168 195 207 210 172 179 190 183 183 182 174 174 174 183 173 178 177 176 171 175 177 176
206 204 199 184 191 194 185 161 174 170 152 113 105 30 146 204 167 180 199 185 193 181 168 167 170 183 181 179 185 176 180 181 183
201 201 201 196 193 194 190 177 145 163 174 174 153 172 203 195 198 181 196 201 183 181 173 170 175 172 169 174 184 184 186 185 190
281 202 200 208 201 196 196 191 181 177 195 225 167 156 213 146 197 213 195 187 191 182 169 171 174 172 172 171 182 187 192 191 195
313 245 203 200 206 203 201 196 191 184 187 231 224 149 144 178 195 233 197 187 194 189 189 182 180 180 178 176 178 189 192 201 198
281 297 230 208 202 209 201 198 197 198 190 197 151 142 128 122 145 196 183 209 197 191 195 191 189 188 185 184 191 190 197 203 207